Location: Bednik
(45.3500°N, 16.3833°E)
Time: 21:55:14
(UTC+00:00)

ARGOS - Pass Details

Date: 08 August 2020
Orbit: 820 x 835 km, 98.5° (Epoch: 21 September)

Event Time Altitude Azimuth Distance (km) Brightness Sun altitude
Rises 18:34:22 0° 174° (S) 3,359 6.0 -4.4°
Reaches altitude 10° 18:36:44 10° 178° (S) 2,428 5.3 -4.7°
Maximum altitude 18:42:04 62° 259° (WSW) 929 3.7 -5.6°
Drops below altitude 10° 18:47:25 10° 340° (NNW) 2,436 6.4 -6.4°
Sets 18:49:48 0° 344° (NNW) 3,371 7.1 -6.7°
